Buffalo, MN

5:43 AM CST on December 14, 2019 (GMT -0600)
Buffalo

Weather History for KCFE - October, 2019

Change the Weather History Date:

Tuesday, October 29, 2019

  Actual Average (WUND) Record (WUND)
Temperature  
Mean Temperature 30 °F -  
Max Temperature 36 °F - - (-1)
Min Temperature 25 °F - - (-1)
Degree Days  
Heating Degree Days 35    
Moisture  
Dew Point 17 °F    
Average Humidity 61    
Maximum Humidity 85    
Minimum Humidity 39    
Precipitation  
Precipitation 0.00 in - - ()
Sea Level Pressure  
Sea Level Pressure 30.23 in    
Wind  
Wind Speed - (North)    
Max Wind Speed -    
Max Gust Speed -    
Visibility 10 miles    
Events      
Averages and records for this station are not official NWS values.
T = Trace of Precipitation, MM = Missing Value Source: NWS Daily Summary

Daily Weather History Graph

Daily Weather History Graph

Search for Another Location

Airport or City:

Astronomy

Oct. 29, 2019 Rise Set
Actual Time 7:49 AM CDT 6:07 PM CDT
Civil Twilight 7:19 AM CDT 6:38 PM CDT
Nautical Twilight 6:44 AM CDT 7:12 PM CDT
Astronomical Twilight 6:10 AM CDT 7:46 PM CDT
Moon 9:26 AM CDT (10/29) 7:28 PM CDT (10/29)
Length of Visible Light 11h 18m
Length of Day
10h 17m
Waxing Crescent, 3% of the Moon is Illuminated
Oct 29
Waxing Crescent
Nov 4
First Quarter
Nov 12
Full
Nov 19
Last Quarter
Nov 26
New

Hourly Weather History & Observations

Time (CDT) Temp. Dew Point Humidity Pressure Visibility Wind Dir Wind Speed Gust Speed Precip Events Conditions
12:15 AM 30.7 °F 20.5 °F 66% 30.13 in 10.0 mi North - - N/A   Clear
12:16 AM 30.9 °F 20.5 °F 65% 30.13 in 10.0 mi North - - N/A   Clear
12:55 AM 30.2 °F 20.1 °F 66% 30.13 in 10.0 mi North - - N/A   Clear
1:15 AM 30.0 °F 20.3 °F 67% 30.14 in 10.0 mi North - - N/A   Clear
1:35 AM 29.8 °F 20.8 °F 69% 30.14 in 10.0 mi North - - N/A   Clear
1:36 AM 29.8 °F 20.8 °F 69% 30.14 in 10.0 mi North - - N/A   Clear
1:55 AM 29.8 °F 21.0 °F 70% 30.14 in 10.0 mi North - - N/A   Clear
2:15 AM 29.1 °F 20.3 °F 70% 30.14 in 10.0 mi North - - N/A   Clear
2:16 AM 29.1 °F 20.3 °F 70% 30.14 in 10.0 mi North - - N/A   Clear
2:35 AM 28.9 °F 21.0 °F 72% 30.13 in 10.0 mi North - - N/A   Clear
2:55 AM 27.5 °F 21.2 °F 77% 30.12 in 10.0 mi North - - N/A   Clear
2:56 AM 27.5 °F 21.2 °F 77% 30.12 in 10.0 mi North - - N/A   Clear
3:15 AM 26.6 °F 21.6 °F 81% 30.12 in 10.0 mi North - - N/A   Clear
3:35 AM 28.0 °F 21.2 °F 76% 30.12 in 10.0 mi North - - N/A   Clear
3:36 AM 28.0 °F 21.2 °F 76% 30.12 in 10.0 mi North - - N/A   Clear
3:55 AM 27.5 °F 21.2 °F 77% 30.13 in 10.0 mi North - - N/A   Clear
4:15 AM 26.8 °F 21.2 °F 79% 30.13 in 10.0 mi North - - N/A   Clear
4:35 AM 27.3 °F 21.2 °F 78% 30.13 in 10.0 mi North - - N/A   Clear
4:36 AM 27.3 °F 21.2 °F 78% 30.13 in 10.0 mi North - - N/A   Clear
4:55 AM 27.1 °F 21.4 °F 79% 30.14 in 10.0 mi North - - N/A   Clear
4:56 AM 27.1 °F 21.2 °F 78% 30.14 in 10.0 mi North - - N/A   Clear
5:15 AM 27.1 °F 21.2 °F 78% 30.15 in 10.0 mi North - - N/A   Clear
5:35 AM 26.4 °F 21.2 °F 81% 30.16 in 10.0 mi North - - N/A   Clear
5:55 AM 26.4 °F 21.2 °F 81% 30.17 in 10.0 mi North - - N/A   Clear
5:56 AM 26.6 °F 21.2 °F 80% 30.17 in 10.0 mi North - - N/A   Clear
6:15 AM 26.6 °F 21.2 °F 80% 30.17 in 10.0 mi North - - N/A   Clear
6:16 AM 26.6 °F 21.2 °F 80% 30.17 in 10.0 mi North - - N/A   Clear
6:35 AM 25.7 °F 21.4 °F 84% 30.17 in 10.0 mi North - - N/A   Clear
6:55 AM 25.9 °F 21.7 °F 84% 30.17 in 10.0 mi North - - N/A   Clear
7:35 AM 25.9 °F 21.9 °F 85% 30.18 in 10.0 mi North - - N/A   Clear
7:55 AM 26.4 °F 21.7 °F 82% 30.19 in 10.0 mi North - - N/A   Clear
8:15 AM 26.6 °F 20.7 °F 78% 30.19 in 10.0 mi North - - N/A   Clear
8:35 AM 27.3 °F 20.7 °F 76% 30.19 in 10.0 mi North - - N/A   Clear
8:55 AM 28.0 °F 19.8 °F 71% 30.21 in 10.0 mi North - - N/A   Clear
9:15 AM 28.0 °F 16.0 °F 61% 30.22 in 10.0 mi North - - N/A   Clear
9:16 AM 28.0 °F 15.8 °F 60% 30.22 in 10.0 mi North - - N/A   Clear
9:35 AM 29.5 °F 16.3 °F 58% 30.23 in 10.0 mi North - - N/A   Clear
9:55 AM 30.7 °F 15.6 °F 54% 30.24 in 10.0 mi North - - N/A   Mostly Cloudy
10:15 AM 30.6 °F 16.3 °F 56% 30.25 in 10.0 mi North - - N/A   Overcast
10:55 AM 32.0 °F 14.9 °F 49% 30.26 in 10.0 mi North - - N/A   Clear
11:15 AM 32.5 °F 16.0 °F 51% 30.26 in 10.0 mi North - - N/A   Clear
11:35 AM 32.4 °F 16.9 °F 53% 30.27 in 10.0 mi North - - N/A   Clear
11:36 AM 32.4 °F 16.7 °F 53% 30.27 in 10.0 mi North - - N/A   Clear
11:55 AM 32.9 °F 16.0 °F 50% 30.28 in 10.0 mi North - - N/A   Clear
12:15 PM 33.8 °F 16.3 °F 49% 30.27 in 10.0 mi North - - N/A   Clear
12:16 PM 33.8 °F 16.3 °F 49% 30.27 in 10.0 mi North - - N/A   Clear
12:35 PM 34.0 °F 15.8 °F 47% 30.27 in 10.0 mi North - - N/A   Clear
12:55 PM 34.7 °F 15.8 °F 46% 30.28 in 10.0 mi North - - N/A   Clear
1:16 PM 34.2 °F 15.8 °F 47% 30.28 in 10.0 mi North - - N/A   Clear
1:36 PM 34.3 °F 16.5 °F 48% 30.27 in 10.0 mi North - - N/A   Clear
2:35 PM 35.6 °F 12.6 °F 39% 30.26 in 10.0 mi North - - N/A   Clear
2:55 PM 35.6 °F 14.2 °F 42% 30.26 in 10.0 mi North - - N/A   Clear
3:15 PM 35.6 °F 13.5 °F 40% 30.26 in 10.0 mi North - - N/A   Clear
3:35 PM 35.6 °F 14.4 °F 42% 30.26 in 10.0 mi North - - N/A   Clear
3:55 PM 35.6 °F 13.6 °F 41% 30.26 in 10.0 mi North - - N/A   Clear
4:15 PM 35.2 °F 13.5 °F 41% 30.27 in 10.0 mi North - - N/A   Clear
4:16 PM 35.2 °F 13.3 °F 41% 30.27 in 10.0 mi North - - N/A   Clear
4:35 PM 35.1 °F 12.6 °F 40% 30.27 in 10.0 mi North - - N/A   Clear
4:36 PM 35.1 °F 12.7 °F 40% 30.27 in 10.0 mi North - - N/A   Clear
4:55 PM 34.7 °F 13.1 °F 41% 30.26 in 10.0 mi North - - N/A   Clear
4:56 PM 34.7 °F 13.1 °F 41% 30.26 in 10.0 mi North - - N/A   Clear
5:15 PM 33.8 °F 12.9 °F 42% 30.26 in 10.0 mi North - - N/A   Clear
5:16 PM 33.8 °F 12.9 °F 42% 30.26 in 10.0 mi North - - N/A   Clear
5:55 PM 32.5 °F 13.5 °F 45% 30.28 in 10.0 mi North - - N/A   Clear
5:56 PM 32.4 °F 13.6 °F 46% 30.28 in 10.0 mi North - - N/A   Clear
6:15 PM 32.0 °F 13.3 °F 46% 30.29 in 10.0 mi North - - N/A   Clear
6:35 PM 31.6 °F 13.3 °F 47% 30.29 in 10.0 mi North - - N/A   Clear
6:36 PM 31.6 °F 13.5 °F 47% 30.29 in 10.0 mi North - - N/A   Clear
6:55 PM 31.1 °F 14.0 °F 49% 30.30 in 10.0 mi North - - N/A   Clear
7:15 PM 30.9 °F 14.7 °F 51% 30.31 in 10.0 mi North - - N/A   Clear
7:35 PM 30.2 °F 14.9 °F 53% 30.31 in 10.0 mi North - - N/A   Clear
7:55 PM 29.1 °F 14.9 °F 55% 30.31 in 10.0 mi North - - N/A   Clear
8:15 PM 29.5 °F 14.5 °F 54% 30.32 in 10.0 mi North - - N/A   Clear
8:35 PM 29.3 °F 15.4 °F 56% 30.32 in 10.0 mi North - - N/A   Clear
8:55 PM 29.1 °F 15.8 °F 58% 30.33 in 10.0 mi North - - N/A   Clear
9:15 PM 28.9 °F 15.6 °F 58% 30.33 in 10.0 mi North - - N/A   Clear
9:16 PM 28.9 °F 15.6 °F 58% 30.33 in 10.0 mi North - - N/A   Clear
9:35 PM 28.4 °F 15.8 °F 59% 30.34 in 10.0 mi North - - N/A   Clear
9:55 PM 28.2 °F 16.0 °F 60% 30.34 in 10.0 mi North - - N/A   Clear
10:15 PM 27.9 °F 16.5 °F 62% 30.35 in 10.0 mi North - - N/A   Clear
10:35 PM 27.9 °F 15.8 °F 61% 30.35 in 10.0 mi North - - N/A   Clear
10:36 PM 27.9 °F 15.8 °F 61% 30.35 in 10.0 mi North - - N/A   Clear
10:55 PM 27.1 °F 15.8 °F 62% 30.35 in 10.0 mi North - - N/A   Clear
11:55 PM 25.7 °F 16.7 °F 69% 30.36 in 10.0 mi North - - N/A   Clear
11:56 PM 25.5 °F 16.7 °F 69% 30.36 in 10.0 mi North - - N/A   Clear